Location: Prairie View Elementary School
(39.8322°N, 99.5698°W)
Time: 08:32:48
(UTC+00:00)

Cosmos 407 Rocket - Pass Details

Date: 08 December 2019
Orbit: 743 x 787 km, 74.0° (Epoch: 20 January)

Event Time Altitude Azimuth Distance (km) Brightness Sun altitude
Exits shadow 11:11:00 47° 26° (NNE) 1,041 4.2 -29.1°
Maximum altitude 11:12:05 55° 68° (ENE) 940 4.1 -28.9°
Drops below altitude 10° 11:17:18 10° 146° (SE) 2,341 6.5 -27.9°
Sets 11:19:44 0° 151° (SSE) 3,264 7.3 -27.5°
